Regional Weather Roundup
Issued by NWS

Home | Current Version | Previous Version | Text Only | Print | Product List | Glossary On
Versions: 1 2 3 4 5 6 7 8 9 10 11 12 13 14 15 16 17 18 19 20 21 22 23 24 25 26 27
000
ASPQ40 PGUM 202012
RWRPQ
WEATHER ROUNDUP FOR THE MARIANAS AND MICRONESIA
NATIONAL WEATHER SERVICE TIYAN GU
600 AM CHST SAT OCT 21 2017

GUZ001>004-202100-
MARIANA ISLANDS-

CITY           SKY/WX    TMP DP  RH WIND       PRES   REMARKS
GUAM AIRPORT   CLEAR     75  75 100 CALM      29.79R
ANDERSEN AFB   PTCLDY    81  75  83 N9        29.79R
ROTA AIRPORT   NOT AVBL
TINIAN AP      NOT AVBL
SAIPAN AP      PTCLDY    81  79  94 NE9       29.77R

$$

PMZ161-202100-
REPUBLIC OF PALAU-

CITY           SKY/WX    TMP DP  RH WIND       PRES   REMARKS
KOROR AP       CLOUDY    82  77  83 S9        29.76S HX  91
KOROR WSO      CLOUDY    84  79  84 S12G23    29.78R HX  96

$$

PMZ171>174-202100-
FEDERATED STATES OF MICRONESIA-

CITY           SKY/WX    TMP DP  RH WIND       PRES   REMARKS
YAP AIRPORT    NOT AVBL
CHUUK AP       PTCLDY    84  81  89 VRB6      29.73R HX  98
POHNPEI AP     NOT AVBL
POHNPEI WSO    NOT AVBL
KOSRAE AP      NOT AVBL

$$

PMZ181-202100-
REPUBLIC OF THE MARSHALL ISLANDS-

CITY           SKY/WX    TMP DP  RH WIND       PRES   REMARKS
KWAJALEIN AP   RAIN      81  77  89 SW12      29.81S
MAJURO AP      MOSUNNY   84  79  84 S7        29.78  HX  96
MAJURO WSO     PTSUNNY   84  77  79 S10       29.79R HX  94

$$





USA.gov is the U.S. government's official web portal to all federal, state and local government web resources and services.